Tracking 18984 objects as of 24-Feb-2018
HD Live streaming from Space Station
objects crossing your sky now

FENGYUN 1C DEB

Track FENGYUN 1C DEB now!
10-day predictions


NORAD ID: 31044
Int'l Code: 1999-025BEN
Perigee: 558.0 km
Apogee: 645.2 km
Inclination: 99.4 °
Period: 96.6 minutes
Semi major axis: 6972 km
RCS: 0.0074 m2 (small)
Launch date: May 10, 1999
Source: People's Republic of China (PRC)
Launch site: Taiyaun Space Center, China (TSC)

Note: This is SATELLITE DEBRIS
aabbcc
Your satellite tracking list
Your tracking list is empty




NASA's NSSDC Master Catalog

Two Line Element Set (TLE):
1 31044U 99025BEN 18052.56330244  .00003719  00000-0  36913-3 0  9995
2 31044  99.4291 274.9604 0062520  83.8737 276.9595 14.91122432581399
Source of the keplerian elements: AFSPC